TimePDT,TemperatureF,Dew PointF,Humidity,Sea Level PressureIn,VisibilityMPH,Wind Direction,Wind SpeedMPH,Gust SpeedMPH,PrecipitationIn,Events,Conditions,WindDirDegrees,DateUTC
12:55 AM,54.0,32.0,43,30.01,10.0,NE,4.6,-,N/A,,Partly Cloudy,50,2012-10-29 07:55:00
1:55 AM,55.9,30.9,39,30.01,10.0,East,8.1,-,N/A,,Partly Cloudy,80,2012-10-29 08:55:00
2:55 AM,57.0,30.0,36,30.01,10.0,East,6.9,-,N/A,,Partly Cloudy,80,2012-10-29 09:55:00
3:55 AM,57.0,30.0,36,29.99,10.0,ENE,4.6,-,N/A,,Partly Cloudy,70,2012-10-29 10:55:00
4:55 AM,57.0,28.9,34,29.99,10.0,ENE,6.9,-,N/A,,Partly Cloudy,60,2012-10-29 11:55:00
5:55 AM,57.0,33.1,40,30.02,10.0,NNW,4.6,-,N/A,,Partly Cloudy,340,2012-10-29 12:55:00
6:55 AM,50.0,28.9,44,30.02,10.0,ENE,6.9,-,N/A,,Partly Cloudy,70,2012-10-29 13:55:00
7:55 AM,60.1,28.9,31,30.05,10.0,Calm,Calm,-,N/A,,Partly Cloudy,0,2012-10-29 14:55:00
8:55 AM,71.1,27.0,19,30.06,10.0,Calm,Calm,-,N/A,,Partly Cloudy,0,2012-10-29 15:55:00
9:55 AM,73.9,26.1,17,30.07,10.0,NNW,3.5,-,N/A,,Partly Cloudy,340,2012-10-29 16:55:00
10:55 AM,78.1,26.1,15,30.07,10.0,NW,5.8,-,N/A,,Partly Cloudy,310,2012-10-29 17:55:00
11:55 AM,81.0,30.0,16,30.05,10.0,NW,4.6,-,N/A,,Partly Cloudy,320,2012-10-29 18:55:00
12:55 PM,82.0,32.0,16,30.03,10.0,NW,8.1,-,N/A,,Partly Cloudy,310,2012-10-29 19:55:00
1:55 PM,82.0,23.0,11,30.01,10.0,West,8.1,-,N/A,,Partly Cloudy,270,2012-10-29 20:55:00
2:55 PM,82.0,25.0,12,30.00,10.0,West,9.2,-,N/A,,Partly Cloudy,270,2012-10-29 21:55:00
3:55 PM,77.0,46.0,33,30.00,10.0,NW,6.9,-,N/A,,Scattered Clouds,310,2012-10-29 22:55:00
4:55 PM,73.9,46.9,38,30.00,10.0,WNW,3.5,-,N/A,,Scattered Clouds,300,2012-10-29 23:55:00
5:55 PM,68.0,48.0,49,30.01,10.0,West,4.6,-,N/A,,Partly Cloudy,260,2012-10-30 00:55:00
6:55 PM,61.0,50.0,67,30.03,10.0,WNW,3.5,-,N/A,,Partly Cloudy,290,2012-10-30 01:55:00
7:55 PM,62.1,53.1,72,30.03,10.0,Calm,Calm,-,N/A,,Partly Cloudy,0,2012-10-30 02:55:00
8:57 PM,55.4,51.8,88,30.05,1.0,WNW,3.5,-,N/A,,Mist,300,2012-10-30 03:57:00
9:10 PM,55.4,51.8,88,30.05,0.1,Calm,Calm,-,N/A,Fog,Fog,0,2012-10-30 04:10:00
9:55 PM,57.9,55.9,93,30.05,0.1,Calm,Calm,-,N/A,Fog,Fog,0,2012-10-30 04:55:00
10:33 PM,53.6,51.8,94,30.06,0.2,ENE,3.5,-,N/A,Fog,Fog,70,2012-10-30 05:33:00
10:55 PM,50.0,46.9,89,30.05,0.2,NE,3.5,-,N/A,Fog,Fog,50,2012-10-30 05:55:00
11:25 PM,51.8,46.4,82,30.07,0.1,Calm,Calm,-,N/A,Fog,Fog,0,2012-10-30 06:25:00
11:55 PM,51.1,46.0,83,30.06,10.0,Calm,Calm,-,N/A,,Clear,0,2012-10-30 06:55:00